Carltonville Airport

Jump to: basic info | weather | comments

Related pages: nearby airports | nearby navaids | notams | map

Basic information (top)

Codes: FACR
Location: lon -26.366667, lat 27.346666, elev 5,000 ft / 1,524 m msl
Status: small_airport

Weather (top)

Current conditions for Potchefstroom Airport 23nm (43km) SW (rec'd 2013/07/12 07:00Z):

FAPS 120700Z AUTO 08002KT //// // ////// 11/// Q1032

Airport forecast for Lanseria Airport 40nm (75km) NE (rec'd 2014/07/29 00:00Z):

TAF FALA 292200Z 3000/3024 VRB03KT CAVOK PROB30 
      TEMPO 3001/3006 5000 BR BKN010 
      BECMG 3010/3012 35007KT SCT045 
      BECMG 3015/3017 CAVOK 
      BECMG 3016/3018 VRB03KT TX20/3012ZTN06/3004Z

Latest comments (top)

re: GERAASBESOEDELING - VLIEGTUIG - CARLETONVILLE: Jislaaik jy is 'n onsensitiewe doos. ... [read]

re: GERAASBESOEDELING - VLIEGTUIG - Naweke raas die Johannes: Johannesburg Skydiving Cemetry - JSC - [read]

GERAASBESOEDELING - VLIEGTUIG - CARLETONVILLE: Is die veld gesoneer vir 'n krematorium/ ... [read]

re: re: re: GERAASBESOEDELING - VLIEGTUIG - Naweke raas die : Geraasbesoedeling en Lugbesoedeling!! B ... [read]

re: re: GERAASBESOEDELING - VLIEGTUIG - Naweke raas die Joha: Tonto en nog dooies, wees gewaarsku, ... [read]

See all 7 comments for Carltonville Airport

More... (top)

See also NOTAMs and nearby airports and navaids, or visit the Carltonville Airport page at the main OurAirports website..